Time,TemperatureF,DewpointF,PressureIn,WindDirection,WindDirectionDegrees,WindSpeedMPH,WindSpeedGustMPH,Humidity,HourlyPrecipIn,Conditions,Clouds,dailyrainin,SoftwareType,DateUTC
2013-07-03 00:03:00,60.7,33.0,30.01,North,360,6.0,-999.0,36,-99.99,,,0.00,weatherlink.com 1.10,2013-07-03 06:03:00,
2013-07-03 00:18:00,60.6,33.0,30.01,North,360,7.0,-999.0,36,-99.99,,,0.00,weatherlink.com 1.10,2013-07-03 06:18:00,
2013-07-03 00:48:00,60.4,33.0,30.01,North,360,8.0,-999.0,36,-99.99,,,0.00,weatherlink.com 1.10,2013-07-03 06:48:00,
2013-07-03 01:18:00,60.1,34.0,30.01,North,360,8.0,-999.0,37,-99.99,,,0.00,weatherlink.com 1.10,2013-07-03 07:18:00,
2013-07-03 01:33:00,60.1,34.0,30.01,North,360,7.0,-999.0,37,-99.99,,,0.00,weatherlink.com 1.10,2013-07-03 07:33:00,
2013-07-03 01:48:00,60.0,33.0,30.01,North,360,7.0,-999.0,37,-99.99,,,0.00,weatherlink.com 1.10,2013-07-03 07:48:00,
2013-07-03 02:03:00,59.5,34.0,30.01,North,360,8.0,-999.0,38,-99.99,,,0.00,weatherlink.com 1.10,2013-07-03 08:03:00,
2013-07-03 02:33:00,58.8,34.0,30.01,North,360,7.0,-999.0,39,-99.99,,,0.00,weatherlink.com 1.10,2013-07-03 08:33:00,
2013-07-03 02:48:00,58.6,34.0,30.01,North,360,8.0,-999.0,39,-99.99,,,0.00,weatherlink.com 1.10,2013-07-03 08:48:00,
2013-07-03 03:03:00,58.6,34.0,30.01,North,360,7.0,-999.0,39,-99.99,,,0.00,weatherlink.com 1.10,2013-07-03 09:03:00,
2013-07-03 03:18:00,58.7,34.0,30.01,North,360,8.0,-999.0,39,-99.99,,,0.00,weatherlink.com 1.10,2013-07-03 09:18:00,
2013-07-03 03:33:00,58.7,33.0,30.01,North,360,8.0,-999.0,38,-99.99,,,0.00,weatherlink.com 1.10,2013-07-03 09:33:00,
2013-07-03 03:48:00,58.5,33.0,30.01,North,360,6.0,-999.0,38,-99.99,,,0.00,weatherlink.com 1.10,2013-07-03 09:48:00,
2013-07-03 04:03:00,57.6,33.0,30.00,North,360,5.0,-999.0,39,-99.99,,,0.00,weatherlink.com 1.10,2013-07-03 10:03:00,
2013-07-03 04:18:00,56.2,32.0,30.00,North,360,7.0,-999.0,40,-99.99,,,0.00,weatherlink.com 1.10,2013-07-03 10:18:00,
2013-07-03 04:33:00,57.1,31.0,30.00,North,360,7.0,-999.0,37,-99.99,,,0.00,weatherlink.com 1.10,2013-07-03 10:33:00,
2013-07-03 05:03:00,57.8,29.0,30.00,North,360,9.0,-999.0,34,-99.99,,,0.00,weatherlink.com 1.10,2013-07-03 11:03:00,
2013-07-03 05:18:00,57.9,30.0,30.00,North,360,7.0,-999.0,34,-99.99,,,0.00,weatherlink.com 1.10,2013-07-03 11:18:00,
2013-07-03 05:48:00,57.5,30.0,30.01,North,360,6.0,-999.0,35,-99.99,,,0.00,weatherlink.com 1.10,2013-07-03 11:48:00,
2013-07-03 06:04:00,57.0,31.0,30.01,North,360,5.0,-999.0,37,-99.99,,,0.00,weatherlink.com 1.10,2013-07-03 12:04:00,
2013-07-03 06:19:00,56.5,32.0,30.02,NNE,19,5.0,-999.0,39,-99.99,,,0.00,weatherlink.com 1.10,2013-07-03 12:19:00,
2013-07-03 06:34:00,54.8,35.0,30.03,North,360,0.0,-999.0,47,-99.99,,,0.00,weatherlink.com 1.10,2013-07-03 12:34:00,
2013-07-03 07:04:00,52.4,37.0,30.03,NNE,30,4.0,-999.0,56,-99.99,,,0.00,weatherlink.com 1.10,2013-07-03 13:04:00,
2013-07-03 07:19:00,52.2,38.0,30.03,North,360,4.0,-999.0,59,-99.99,,,0.00,weatherlink.com 1.10,2013-07-03 13:19:00,
2013-07-03 07:34:00,53.7,39.0,30.04,North,360,3.0,-999.0,58,-99.99,,,0.00,weatherlink.com 1.10,2013-07-03 13:34:00,
2013-07-03 07:49:00,56.0,40.0,30.04,North,360,3.0,-999.0,56,-99.99,,,0.00,weatherlink.com 1.10,2013-07-03 13:49:00,
2013-07-03 08:04:00,58.4,41.0,30.04,North,360,3.0,-999.0,52,-99.99,,,0.00,weatherlink.com 1.10,2013-07-03 14:04:00,
2013-07-03 08:19:00,59.1,45.0,30.04,North,360,3.0,-999.0,59,-99.99,,,0.00,weatherlink.com 1.10,2013-07-03 14:19:00,
2013-07-03 08:34:00,61.6,46.0,30.03,North,360,0.0,-999.0,57,-99.99,,,0.00,weatherlink.com 1.10,2013-07-03 14:34:00,
2013-07-03 08:49:00,65.6,47.0,30.03,North,360,0.0,-999.0,52,-99.99,,,0.00,weatherlink.com 1.10,2013-07-03 14:49:00,
2013-07-03 09:04:00,68.8,41.0,30.03,North,360,0.0,-999.0,36,-99.99,,,0.00,weatherlink.com 1.10,2013-07-03 15:04:00,
2013-07-03 09:19:00,71.1,43.0,30.03,North,360,0.0,-999.0,37,-99.99,,,0.00,weatherlink.com 1.10,2013-07-03 15:19:00,
2013-07-03 09:34:00,71.9,45.0,30.02,North,360,0.0,-999.0,38,-99.99,,,0.00,weatherlink.com 1.10,2013-07-03 15:34:00,
2013-07-03 09:49:00,72.0,42.0,30.02,North,360,2.0,-999.0,34,-99.99,,,0.00,weatherlink.com 1.10,2013-07-03 15:49:00,
2013-07-03 10:04:00,71.1,43.0,30.03,North,360,1.0,-999.0,36,-99.99,,,0.00,weatherlink.com 1.10,2013-07-03 16:04:00,
2013-07-03 10:19:00,71.6,44.0,30.02,North,360,3.0,-999.0,37,-99.99,,,0.00,weatherlink.com 1.10,2013-07-03 16:19:00,
2013-07-03 10:49:00,72.3,42.0,30.02,North,360,7.0,-999.0,34,-99.99,,,0.00,weatherlink.com 1.10,2013-07-03 16:49:00,
2013-07-03 11:04:00,72.5,40.0,30.02,North,360,7.0,-999.0,31,-99.99,,,0.00,weatherlink.com 1.10,2013-07-03 17:04:00,
2013-07-03 11:34:00,73.6,43.0,30.02,North,360,2.0,-999.0,33,-99.99,,,0.00,weatherlink.com 1.10,2013-07-03 17:34:00,
2013-07-03 12:04:00,74.6,41.0,30.01,North,360,6.0,-999.0,30,-99.99,,,0.00,weatherlink.com 1.10,2013-07-03 18:04:00,
2013-07-03 12:19:00,75.0,39.0,30.01,North,360,4.0,-999.0,27,-99.99,,,0.00,weatherlink.com 1.10,2013-07-03 18:19:00,
2013-07-03 13:05:00,76.0,41.0,30.00,North,360,0.0,-999.0,28,-99.99,,,0.00,weatherlink.com 1.10,2013-07-03 19:05:00,
2013-07-03 13:20:00,76.8,40.0,29.99,North,360,3.0,-999.0,27,-99.99,,,0.00,weatherlink.com 1.10,2013-07-03 19:20:00,
2013-07-03 14:05:00,77.8,40.0,29.98,North,360,12.0,-999.0,26,-99.99,,,0.00,weatherlink.com 1.10,2013-07-03 20:05:00,
2013-07-03 14:20:00,78.5,39.0,29.97,North,360,12.0,-999.0,24,-99.99,,,0.00,weatherlink.com 1.10,2013-07-03 20:20:00,
2013-07-03 14:35:00,78.7,39.0,29.96,North,360,8.0,-999.0,24,-99.99,,,0.00,weatherlink.com 1.10,2013-07-03 20:35:00,
2013-07-03 14:50:00,79.0,39.0,29.95,North,360,7.0,-999.0,24,-99.99,,,0.00,weatherlink.com 1.10,2013-07-03 20:50:00,
2013-07-03 15:20:00,78.9,38.0,29.94,North,360,9.0,-999.0,23,-99.99,,,0.00,weatherlink.com 1.10,2013-07-03 21:20:00,
2013-07-03 15:35:00,77.9,38.0,29.93,North,360,3.0,-999.0,24,-99.99,,,0.00,weatherlink.com 1.10,2013-07-03 21:35:00,
2013-07-03 15:50:00,77.1,39.0,29.93,North,360,6.0,-999.0,25,-99.99,,,0.00,weatherlink.com 1.10,2013-07-03 21:50:00,
2013-07-03 16:05:00,76.2,37.0,29.92,North,360,9.0,-999.0,24,-99.99,,,0.00,weatherlink.com 1.10,2013-07-03 22:05:00,
2013-07-03 16:20:00,75.3,38.0,29.93,North,360,3.0,-999.0,26,-99.99,,,0.00,weatherlink.com 1.10,2013-07-03 22:20:00,
2013-07-03 16:35:00,73.1,38.0,29.98,North,360,22.0,-999.0,28,-99.99,,,0.00,weatherlink.com 1.10,2013-07-03 22:35:00,
2013-07-03 16:50:00,70.4,41.0,29.99,North,360,8.0,-999.0,34,-99.99,,,0.00,weatherlink.com 1.10,2013-07-03 22:50:00,
2013-07-03 17:05:00,69.4,42.0,29.98,NE,55,0.0,-999.0,37,-99.99,,,0.00,weatherlink.com 1.10,2013-07-03 23:05:00,
2013-07-03 17:20:00,69.1,43.0,29.96,North,360,2.0,-999.0,39,-99.99,,,0.00,weatherlink.com 1.10,2013-07-03 23:20:00,
2013-07-03 17:35:00,68.0,47.0,29.96,North,360,12.0,-999.0,47,-99.99,,,0.00,weatherlink.com 1.10,2013-07-03 23:35:00,
2013-07-03 17:50:00,64.2,47.0,29.94,North,360,7.0,-999.0,54,-99.99,,,0.00,weatherlink.com 1.10,2013-07-03 23:50:00,
2013-07-03 18:20:00,65.8,45.0,29.95,North,360,6.0,-999.0,48,-99.99,,,0.00,weatherlink.com 1.10,2013-07-04 00:20:00,
2013-07-03 18:35:00,66.6,45.0,29.95,East,86,4.0,-999.0,46,-99.99,,,0.00,weatherlink.com 1.10,2013-07-04 00:35:00,
2013-07-03 19:05:00,66.6,48.0,29.94,North,360,3.0,-999.0,52,-99.99,,,0.00,weatherlink.com 1.10,2013-07-04 01:05:00,
2013-07-03 19:20:00,65.9,50.0,29.94,ENE,75,2.0,-999.0,56,-99.99,,,0.00,weatherlink.com 1.10,2013-07-04 01:20:00,
2013-07-03 19:50:00,62.0,46.0,29.95,ESE,107,2.0,-999.0,57,-99.99,,,0.00,weatherlink.com 1.10,2013-07-04 01:50:00,
2013-07-03 20:05:00,61.1,44.0,29.96,East,96,0.0,-999.0,54,-99.99,,,0.00,weatherlink.com 1.10,2013-07-04 02:05:00,
2013-07-03 20:20:00,60.6,45.0,29.96,ENE,75,1.0,-999.0,56,-99.99,,,0.00,weatherlink.com 1.10,2013-07-04 02:20:00,
2013-07-03 20:35:00,59.3,44.0,29.97,ENE,61,0.0,-999.0,58,-99.99,,,0.00,weatherlink.com 1.10,2013-07-04 02:35:00,
2013-07-03 20:50:00,58.2,43.0,29.98,NNE,19,2.0,-999.0,57,-99.99,,,0.00,weatherlink.com 1.10,2013-07-04 02:50:00,
2013-07-03 21:05:00,58.1,43.0,30.00,NE,35,2.0,-999.0,57,-99.99,,,0.00,weatherlink.com 1.10,2013-07-04 03:05:00,